[[{"header":{"parameterUnit":"m.s-1","parameterCategory":1,"la1":30.2992,"la2":30.254,"lo1":-89.0895,"lo2":-89.0443,"dy":0.0025,"dx":0.0025,"nx":19,"ny":19,"refTime":"2026-03-16T09:00:00:Z","depth":0,"parameterNumber":2,"parameterNumberName":"U-component_of_WINDS"},"data":[0,0,0,2.3226,2.3226,2.324,2.324,2.3269,2.327,0,0,0,0,0,0,0,0,0,0,0,2.3229,2.3229,2.3226,2.3226,2.324,2.324,2.3269,2.327,0,0,0,0,0,0,0,0,0,0,0,2.3229,2.3229,2.323,2.3226,2.324,2.324,2.3269,2.3255,0,0,0,0,0,0,0,0,0,0,2.3239,2.3249,2.3229,2.323,2.3227,2.324,2.324,2.3254,2.3256,2.3268,0,2.3281,0,2.3276,2.3273,2.3273,0,0,0,2.3221,2.3247,2.3245,2.323,2.3227,2.324,2.3232,2.3255,2.3257,2.3271,2.3282,2.3282,2.3277,2.3273,2.3273,2.3365,2.3366,0,0,2.322,2.3235,2.3244,2.3247,2.3245,2.3232,2.3233,2.3256,2.3268,2.3282,2.3283,2.3277,2.3273,2.3273,2.3365,2.3366,0,0,0,2.3222,2.3235,2.3231,2.3246,2.3247,2.3232,2.3233,2.3267,2.3265,2.3283,2.3278,2.3273,2.3274,2.3364,2.3365,2.3413,0,0,0,2.3221,2.3235,2.3231,2.324,2.3247,2.3257,2.3245,2.3264,2.3266,2.3277,2.3273,2.3274,2.3363,2.3364,2.341,2.3432,0,0,0,2.3225,2.3236,2.324,2.3241,2.3247,2.3257,2.3255,2.3264,2.3263,2.3273,2.3274,2.3363,2.3364,2.3407,2.3428,2.3461,0,0,0,2.3234,2.3282,2.3241,2.3292,2.3247,2.3287,2.3255,2.3283,2.3298,2.3274,2.3363,2.3365,2.3406,2.3425,2.3458,2.3491,2.3506,0,0,2.3302,2.329,2.3319,2.3283,2.3334,2.3283,2.334,2.3339,2.3327,2.3353,2.3356,2.3411,2.3428,2.346,2.3587,2.36,0,0,0,2.3346,2.3367,2.3377,2.3392,2.3393,2.3396,2.3385,2.3385,2.3407,2.3344,2.3432,2.3441,2.346,2.3475,2.3485,2.35,2.3373,2.3372,2.3372,2.3461,2.3444,2.3491,2.3476,2.3491,2.3481,2.3491,2.349,2.3467,2.3488,2.3495,2.3575,2.3593,2.36,2.3616,2.3512,2.3512,2.3512,2.3513,2.3558,2.3585,2.3556,2.3591,2.3573,2.3602,2.3595,2.3579,2.3604,2.3567,2.3583,2.3544,2.3614,2.3627,2.3516,2.3515,2.3515,2.3515,2.3514,2.3631,2.364,2.3641,2.3662,2.3681,2.3665,2.3691,2.3673,2.3657,2.3673,2.3679,2.3678,2.3675,2.3677,2.3678,2.3678,2.3678,2.3678,2.3678,2.3705,2.3704,2.3728,2.3736,2.3744,2.3753,2.3746,2.3754,2.3758,2.3743,2.3743,2.3719,2.3625,2.3601,2.3683,2.3682,2.3681,2.3681,2.3681,2.3808,2.3783,2.382,2.3828,2.3837,2.3857,2.3836,2.3854,2.3859,2.3872,2.3846,2.3779,2.3765,2.3757,2.3737,2.3849,2.3849,2.3849,2.3849,2.3868,2.3861,2.3896,2.3911,2.3924,2.391,2.3953,2.3949,2.394,2.3942,2.3924,2.3897,2.3889,2.388,2.3869,2.385,2.3988,2.3988,2.3988,2.3931,2.3924,2.3964,2.3956,2.3962,2.3968,2.4009,2.4028,2.4013,2.3993,2.3943,2.3937,2.3893,2.388,2.3857,2.384,2.3806,0,0]},{"header":{"parameterUnit":"m.s-1","parameterCategory":1,"la1":30.2992,"la2":30.254,"lo1":-89.0895,"lo2":-89.0443,"dy":0.0025,"dx":0.0025,"nx":19,"ny":19,"refTime":"2026-03-16T09:00:00:Z","depth":0,"parameterNumber":3,"parameterNumberName":"V-component_of_WINDS"},"data":[0,0,0,-7.757,-7.7576,-7.7885,-7.7887,-7.829,-7.8293,0,0,0,0,0,0,0,0,0,0,0,-7.7486,-7.7489,-7.7569,-7.7577,-7.7885,-7.7887,-7.8289,-7.8293,0,0,0,0,0,0,0,0,0,0,0,-7.7484,-7.7488,-7.7492,-7.7578,-7.7885,-7.7887,-7.8288,-7.8052,0,0,0,0,0,0,0,0,0,0,-7.775,-7.7681,-7.7487,-7.7492,-7.758,-7.7885,-7.7887,-7.804,-7.8066,-7.8154,0,-7.8236,0,-7.8271,-7.8321,-7.8323,0,0,0,-7.7571,-7.7659,-7.7735,-7.7492,-7.7583,-7.7884,-7.7745,-7.8055,-7.8085,-7.8189,-7.8242,-7.8256,-7.8278,-7.8324,-7.8326,-7.8856,-7.8858,0,0,-7.7554,-7.7545,-7.7715,-7.7755,-7.7711,-7.7735,-7.7754,-7.8073,-7.8129,-7.8243,-7.8266,-7.8285,-7.8327,-7.833,-7.8853,-7.8857,0,0,0,-7.7509,-7.7533,-7.7602,-7.7739,-7.7794,-7.7744,-7.7766,-7.8114,-7.8138,-7.827,-7.8289,-7.8329,-7.8334,-7.885,-7.8854,-7.8983,0,0,0,-7.7499,-7.7507,-7.7595,-7.7592,-7.7788,-7.7959,-7.7801,-7.8116,-7.8152,-7.8287,-7.8329,-7.8338,-7.8847,-7.8853,-7.8973,-7.9045,0,0,0,-7.7463,-7.7503,-7.755,-7.7591,-7.7724,-7.7954,-7.7995,-7.8124,-7.8164,-7.8323,-7.8339,-7.8845,-7.8852,-7.8964,-7.903,-7.9182,0,0,0,-7.7422,-7.7659,-7.7552,-7.7824,-7.7721,-7.8031,-7.7993,-7.8224,-7.8376,-7.8331,-7.8848,-7.8854,-7.8961,-7.9021,-7.9172,-7.9308,-7.9364,0,0,-7.7716,-7.7694,-7.7855,-7.7768,-7.8096,-7.7985,-7.833,-7.8477,-7.8499,-7.8735,-7.8748,-7.8976,-7.9029,-7.918,-7.9679,-7.9723,0,0,0,-7.7945,-7.8061,-7.815,-7.8294,-7.8413,-7.8519,-7.8614,-7.8668,-7.8869,-7.8619,-7.9072,-7.9104,-7.9192,-7.9258,-7.9295,-7.9372,-7.8884,-7.8883,-7.8882,-7.835,-7.8366,-7.8633,-7.8687,-7.8827,-7.8922,-7.9037,-7.9125,-7.9101,-7.9207,-7.9278,-7.9579,-7.9655,-7.9683,-7.9763,-7.935,-7.9351,-7.9351,-7.9352,-7.8782,-7.8949,-7.891,-7.9155,-7.9171,-7.9376,-7.9476,-7.9451,-7.9643,-7.9527,-7.9606,-7.9478,-7.9731,-7.9801,-7.9361,-7.936,-7.9358,-7.9358,-7.9357,-7.9049,-7.9132,-7.9194,-7.9404,-7.9563,-7.9608,-7.9795,-7.9801,-7.9809,-7.9887,-7.9962,-7.996,-7.9958,-7.9922,-7.9923,-7.9924,-7.9925,-7.9926,-7.9926,-7.9302,-7.9368,-7.9525,-7.967,-7.9763,-7.9886,-7.9982,-8.0074,-8.0176,-8.0166,-8.0166,-8.0131,-7.9753,-7.9658,-7.9943,-7.994,-7.9938,-7.9936,-7.9935,-7.9736,-7.9638,-7.9882,-7.9975,-8.0145,-8.0302,-8.0308,-8.0492,-8.0568,-8.066,-8.0607,-8.0327,-8.0304,-8.0274,-8.0196,-8.0603,-8.0603,-8.0603,-8.0603,-7.9961,-7.995,-8.02,-8.0349,-8.0495,-8.0524,-8.0797,-8.0873,-8.0936,-8.0984,-8.0925,-8.0822,-8.0791,-8.0787,-8.0746,-8.0673,-8.1192,-8.1192,-8.1193,-8.0229,-8.0232,-8.0464,-8.0526,-8.0658,-8.0771,-8.1028,-8.1198,-8.1249,-8.1217,-8.1021,-8.0996,-8.0828,-8.0773,-8.0737,-8.0674,-8.054,0,0]}]]